2024-247AE

Last updated on Tue Jan 21 2025 00:02:04 GMT+0000 (Coordinated Universal Time)

1 62405U 24247AE 25020.42753986 .00034686 00000+0 15437-2 0 9997 2 62405 44.9913 199.2506 0004724 181.3153 178.7716 15.20944226 4118
UTC large
Height (km)
Speed (km/s)
/
Latitude / Longitude
Inclination (degrees)
Orbital Period (minutes)
Azimuth
Elevation
Range (km)
Doppler Factor

Next 0 passes for location: London (51.5072 / 0.1276)

Sorry there are no passes over London.